Year,Month,Day,Hour,Minute,Value (Times are PST for temperature in C)
2014,08,18,00,00,17.30
2014,08,18,00,01,17.30
2014,08,18,00,02,17.30
2014,08,18,00,03,17.30
2014,08,18,00,04,17.30
2014,08,18,00,05,17.30
2014,08,18,00,06,17.30
2014,08,18,00,07,17.30
2014,08,18,00,08,17.20
2014,08,18,00,09,17.20
2014,08,18,00,10,17.20
2014,08,18,00,11,17.20
2014,08,18,00,12,17.20
2014,08,18,00,13,17.20
2014,08,18,00,14,17.20
2014,08,18,00,15,17.10
2014,08,18,00,16,17.10
2014,08,18,00,17,17.10
2014,08,18,00,18,17.10
2014,08,18,00,19,17.10
2014,08,18,00,20,17.10
2014,08,18,00,21,17.00
2014,08,18,00,22,17.00
2014,08,18,00,23,17.00
2014,08,18,00,24,17.00
2014,08,18,00,25,17.00
2014,08,18,00,26,17.00
2014,08,18,00,27,17.00
2014,08,18,00,28,16.90
2014,08,18,00,29,16.90
2014,08,18,00,30,16.90
2014,08,18,00,31,16.90
2014,08,18,00,32,16.90
2014,08,18,00,33,16.90
2014,08,18,00,34,16.90
2014,08,18,00,35,16.90
2014,08,18,00,36,16.80
2014,08,18,00,37,16.80
2014,08,18,00,38,16.80
2014,08,18,00,39,16.80
2014,08,18,00,40,16.80
2014,08,18,00,41,16.80
2014,08,18,00,42,16.80
2014,08,18,00,43,16.80
2014,08,18,00,44,16.80
2014,08,18,00,45,16.80
2014,08,18,00,46,16.80
2014,08,18,00,47,16.80
2014,08,18,00,48,16.80
2014,08,18,00,49,16.70
2014,08,18,00,50,16.70
2014,08,18,00,51,16.70
2014,08,18,00,52,16.70
2014,08,18,00,53,16.70
2014,08,18,00,54,16.70
2014,08,18,00,55,16.70
2014,08,18,00,56,16.70
2014,08,18,00,57,16.60
2014,08,18,00,58,16.60
2014,08,18,00,59,16.60
2014,08,18,01,00,16.60
2014,08,18,01,01,16.60
2014,08,18,01,02,16.60
2014,08,18,01,03,16.60
2014,08,18,01,04,16.60
2014,08,18,01,05,16.60
2014,08,18,01,06,16.60
2014,08,18,01,07,16.60
2014,08,18,01,08,16.60
2014,08,18,01,09,16.60
2014,08,18,01,10,16.60
2014,08,18,01,11,16.60
2014,08,18,01,12,16.60
2014,08,18,01,13,16.60
2014,08,18,01,14,16.60
2014,08,18,01,15,16.60
2014,08,18,01,16,16.60
2014,08,18,01,17,16.60
2014,08,18,01,18,16.60
2014,08,18,01,19,16.60
2014,08,18,01,20,16.60
2014,08,18,01,21,16.60
2014,08,18,01,22,16.60
2014,08,18,01,23,16.60
2014,08,18,01,24,16.60
2014,08,18,01,25,16.60
2014,08,18,01,26,16.60
2014,08,18,01,27,16.60
2014,08,18,01,28,16.60
2014,08,18,01,29,16.60
2014,08,18,01,30,16.60
2014,08,18,01,31,16.60
2014,08,18,01,32,16.60
2014,08,18,01,33,16.60
2014,08,18,01,34,16.50
2014,08,18,01,35,16.50
2014,08,18,01,36,16.50
2014,08,18,01,37,16.50
2014,08,18,01,38,16.50
2014,08,18,01,39,16.50
2014,08,18,01,40,16.50
2014,08,18,01,41,16.50
2014,08,18,01,42,16.50
2014,08,18,01,43,16.50
2014,08,18,01,44,16.50
2014,08,18,01,45,16.50
2014,08,18,01,46,16.50
2014,08,18,01,47,16.50
2014,08,18,01,48,16.40
2014,08,18,01,49,16.40
2014,08,18,01,50,16.40
2014,08,18,01,51,16.40
2014,08,18,01,52,16.40
2014,08,18,01,53,16.40
2014,08,18,01,54,16.40
2014,08,18,01,55,16.30
2014,08,18,01,56,16.30
2014,08,18,01,57,16.30
2014,08,18,01,58,16.30
2014,08,18,01,59,16.30
2014,08,18,02,00,16.30
2014,08,18,02,01,16.20
2014,08,18,02,02,16.20
2014,08,18,02,03,16.20
2014,08,18,02,04,16.20
2014,08,18,02,05,16.20
2014,08,18,02,06,16.20
2014,08,18,02,07,16.20
2014,08,18,02,08,16.20
2014,08,18,02,09,16.20
2014,08,18,02,10,16.20
2014,08,18,02,11,16.20
2014,08,18,02,12,16.20
2014,08,18,02,13,16.20
2014,08,18,02,14,16.20
2014,08,18,02,15,16.20
2014,08,18,02,16,16.20
2014,08,18,02,17,16.20
2014,08,18,02,18,16.20
2014,08,18,02,19,16.20
2014,08,18,02,20,16.20
2014,08,18,02,21,16.10
2014,08,18,02,22,16.10
2014,08,18,02,23,16.10
2014,08,18,02,24,16.10
2014,08,18,02,25,16.10
2014,08,18,02,26,16.10
2014,08,18,02,27,16.10
2014,08,18,02,28,16.10
2014,08,18,02,29,16.10
2014,08,18,02,30,16.10
2014,08,18,02,31,16.10
2014,08,18,02,32,16.10
2014,08,18,02,33,16.10
2014,08,18,02,34,16.10
2014,08,18,02,35,16.10
2014,08,18,02,36,16.00
2014,08,18,02,37,16.00
2014,08,18,02,38,16.00
2014,08,18,02,39,16.00
2014,08,18,02,40,15.90
2014,08,18,02,41,15.90
2014,08,18,02,42,15.90
2014,08,18,02,43,15.90
2014,08,18,02,44,15.90
2014,08,18,02,45,15.90
2014,08,18,02,46,15.90
2014,08,18,02,47,15.90
2014,08,18,02,48,15.90
2014,08,18,02,49,15.80
2014,08,18,02,50,15.80
2014,08,18,02,51,15.80
2014,08,18,02,52,15.80
2014,08,18,02,53,15.80
2014,08,18,02,54,15.80
2014,08,18,02,55,15.80
2014,08,18,02,56,15.70
2014,08,18,02,57,15.70
2014,08,18,02,58,15.70
2014,08,18,02,59,15.70
2014,08,18,03,00,15.70
2014,08,18,03,01,15.70
2014,08,18,03,02,15.70
2014,08,18,03,03,15.70
2014,08,18,03,04,15.70
2014,08,18,03,05,15.70
2014,08,18,03,06,15.70
2014,08,18,03,07,15.70
2014,08,18,03,08,15.70
2014,08,18,03,09,15.70
2014,08,18,03,10,15.70
2014,08,18,03,11,15.70
2014,08,18,03,12,15.70
2014,08,18,03,13,15.70
2014,08,18,03,14,15.70
2014,08,18,03,15,15.70
2014,08,18,03,16,15.70
2014,08,18,03,17,15.70
2014,08,18,03,18,15.60
2014,08,18,03,19,15.60
2014,08,18,03,20,15.60
2014,08,18,03,21,15.60
2014,08,18,03,22,15.60
2014,08,18,03,23,15.60
2014,08,18,03,24,15.60
2014,08,18,03,25,15.60
2014,08,18,03,26,15.60
2014,08,18,03,27,15.50
2014,08,18,03,28,15.50
2014,08,18,03,29,15.50
2014,08,18,03,30,15.50
2014,08,18,03,31,15.40
2014,08,18,03,32,15.40
2014,08,18,03,33,15.40
2014,08,18,03,34,15.40
2014,08,18,03,35,15.40
2014,08,18,03,36,15.40
2014,08,18,03,37,15.40
2014,08,18,03,38,15.40
2014,08,18,03,39,15.40
2014,08,18,03,40,15.40
2014,08,18,03,41,15.40
2014,08,18,03,42,15.40
2014,08,18,03,43,15.40
2014,08,18,03,44,15.40
2014,08,18,03,45,15.40
2014,08,18,03,46,15.40
2014,08,18,03,47,15.40
2014,08,18,03,48,15.40
2014,08,18,03,49,15.40
2014,08,18,03,50,15.40
2014,08,18,03,51,15.40
2014,08,18,03,52,15.40
2014,08,18,03,53,15.40
2014,08,18,03,54,15.40
2014,08,18,03,55,15.40
2014,08,18,03,56,15.40
2014,08,18,03,57,15.30
2014,08,18,03,58,15.30
2014,08,18,03,59,15.30
2014,08,18,04,00,15.30
2014,08,18,04,01,15.40
2014,08,18,04,02,15.40
2014,08,18,04,03,15.30
2014,08,18,04,04,15.30
2014,08,18,04,05,15.30
2014,08,18,04,06,15.30
2014,08,18,04,07,15.30
2014,08,18,04,08,15.30
2014,08,18,04,09,15.30
2014,08,18,04,10,15.30
2014,08,18,04,11,15.30
2014,08,18,04,12,15.30
2014,08,18,04,13,15.30
2014,08,18,04,14,15.30
2014,08,18,04,15,15.30
2014,08,18,04,16,15.30
2014,08,18,04,17,15.20
2014,08,18,04,18,15.20
2014,08,18,04,19,15.20
2014,08,18,04,20,15.20
2014,08,18,04,21,15.20
2014,08,18,04,22,15.20
2014,08,18,04,23,15.20
2014,08,18,04,24,15.20
2014,08,18,04,25,15.20
2014,08,18,04,26,15.20
2014,08,18,04,27,15.20
2014,08,18,04,28,15.20
2014,08,18,04,29,15.20
2014,08,18,04,30,15.20
2014,08,18,04,31,15.20
2014,08,18,04,32,15.20
2014,08,18,04,33,15.20
2014,08,18,04,34,15.20
2014,08,18,04,35,15.20
2014,08,18,04,36,15.20
2014,08,18,04,37,15.20
2014,08,18,04,38,15.20
2014,08,18,04,39,15.20
2014,08,18,04,40,15.20
2014,08,18,04,41,15.20
2014,08,18,04,42,15.20
2014,08,18,04,43,15.30
2014,08,18,04,44,15.30
2014,08,18,04,45,15.30
2014,08,18,04,46,15.30
2014,08,18,04,47,15.30
2014,08,18,04,48,15.30
2014,08,18,04,49,15.30
2014,08,18,04,50,15.30
2014,08,18,04,51,15.20
2014,08,18,04,52,15.20
2014,08,18,04,53,15.20
2014,08,18,04,54,15.20
2014,08,18,04,55,15.20
2014,08,18,04,56,15.20
2014,08,18,04,57,15.20
2014,08,18,04,58,15.20
2014,08,18,04,59,15.20
2014,08,18,05,00,15.20
2014,08,18,05,01,15.10
2014,08,18,05,02,15.10
2014,08,18,05,03,15.10
2014,08,18,05,04,15.10
2014,08,18,05,05,15.10
2014,08,18,05,06,15.10
2014,08,18,05,07,15.10
2014,08,18,05,08,15.10
2014,08,18,05,09,15.10
2014,08,18,05,10,15.10
2014,08,18,05,11,15.10
2014,08,18,05,12,15.10
2014,08,18,05,13,15.00
2014,08,18,05,14,15.00
2014,08,18,05,15,15.00
2014,08,18,05,16,15.00
2014,08,18,05,17,14.90
2014,08,18,05,18,14.90
2014,08,18,05,19,14.90
2014,08,18,05,20,14.90
2014,08,18,05,21,14.80
2014,08,18,05,22,14.80
2014,08,18,05,23,14.80
2014,08,18,05,24,14.80
2014,08,18,05,25,14.80
2014,08,18,05,26,14.80
2014,08,18,05,27,14.80
2014,08,18,05,28,14.80
2014,08,18,05,29,14.80
2014,08,18,05,30,14.80
2014,08,18,05,31,14.80
2014,08,18,05,32,14.80
2014,08,18,05,33,14.80
2014,08,18,05,34,14.80
2014,08,18,05,35,14.80
2014,08,18,05,36,14.80
2014,08,18,05,37,14.80
2014,08,18,05,38,14.80
2014,08,18,05,39,14.80
2014,08,18,05,40,14.80
2014,08,18,05,41,14.80
2014,08,18,05,42,14.90
2014,08,18,05,43,14.90
2014,08,18,05,44,14.90
2014,08,18,05,45,14.90
2014,08,18,05,46,14.90
2014,08,18,05,47,14.90
2014,08,18,05,48,15.00
2014,08,18,05,49,15.00
2014,08,18,05,50,15.00
2014,08,18,05,51,15.10
2014,08,18,05,52,15.10
2014,08,18,05,53,15.10
2014,08,18,05,54,15.10
2014,08,18,05,55,15.10
2014,08,18,05,56,15.10
2014,08,18,05,57,15.10
2014,08,18,05,58,15.10
2014,08,18,05,59,15.10
2014,08,18,06,00,15.10
2014,08,18,06,01,15.00
2014,08,18,06,02,15.10
2014,08,18,06,03,15.00
2014,08,18,06,04,15.00
2014,08,18,06,05,15.00
2014,08,18,06,06,15.00
2014,08,18,06,07,15.00
2014,08,18,06,08,15.00
2014,08,18,06,09,14.90
2014,08,18,06,10,14.90
2014,08,18,06,11,14.90
2014,08,18,06,12,14.90
2014,08,18,06,13,14.80
2014,08,18,06,14,14.80
2014,08,18,06,15,14.70
2014,08,18,06,16,14.70
2014,08,18,06,17,14.60
2014,08,18,06,18,14.60
2014,08,18,06,19,14.50
2014,08,18,06,20,14.50
2014,08,18,06,21,14.40
2014,08,18,06,22,14.40
2014,08,18,06,23,14.40
2014,08,18,06,24,14.40
2014,08,18,06,25,14.40
2014,08,18,06,26,14.40
2014,08,18,06,27,14.30
2014,08,18,06,28,14.30
2014,08,18,06,29,14.30
2014,08,18,06,30,14.30
2014,08,18,06,31,14.30
2014,08,18,06,32,14.30
2014,08,18,06,33,14.30
2014,08,18,06,34,14.30
2014,08,18,06,35,14.30
2014,08,18,06,36,14.30
2014,08,18,06,37,14.30
2014,08,18,06,38,14.30
2014,08,18,06,39,14.40
2014,08,18,06,40,14.40
2014,08,18,06,41,14.40
2014,08,18,06,42,14.40
2014,08,18,06,43,14.40
2014,08,18,06,44,14.40
2014,08,18,06,45,14.50
2014,08,18,06,46,14.50
2014,08,18,06,47,14.50
2014,08,18,06,48,14.60
2014,08,18,06,49,14.60
2014,08,18,06,50,14.60
2014,08,18,06,51,14.70
2014,08,18,06,52,14.70
2014,08,18,06,53,14.70
2014,08,18,06,54,14.70
2014,08,18,06,55,14.70
2014,08,18,06,56,14.70
2014,08,18,06,57,14.70
2014,08,18,06,58,14.80
2014,08,18,06,59,14.80
2014,08,18,07,00,14.80
2014,08,18,07,01,14.80
2014,08,18,07,02,14.80
2014,08,18,07,03,14.80
2014,08,18,07,04,14.80
2014,08,18,07,05,14.80
2014,08,18,07,06,14.80
2014,08,18,07,07,14.80
2014,08,18,07,08,14.80
2014,08,18,07,09,14.80
2014,08,18,07,10,14.80
2014,08,18,07,11,14.80
2014,08,18,07,12,14.80
2014,08,18,07,13,14.80
2014,08,18,07,14,14.80
2014,08,18,07,15,14.80
2014,08,18,07,16,14.80
2014,08,18,07,17,14.80
2014,08,18,07,18,14.90
2014,08,18,07,19,14.90
2014,08,18,07,20,15.00
2014,08,18,07,21,15.00
2014,08,18,07,22,15.10
2014,08,18,07,23,15.20
2014,08,18,07,24,15.30
2014,08,18,07,25,15.40
2014,08,18,07,26,15.40
2014,08,18,07,27,15.50
2014,08,18,07,28,15.60
2014,08,18,07,29,15.70
2014,08,18,07,30,15.80
2014,08,18,07,31,15.90
2014,08,18,07,32,15.90
2014,08,18,07,33,16.00
2014,08,18,07,34,16.10
2014,08,18,07,35,16.10
2014,08,18,07,36,16.20
2014,08,18,07,37,16.20
2014,08,18,07,38,16.30
2014,08,18,07,39,16.30
2014,08,18,07,40,16.30
2014,08,18,07,41,16.30
2014,08,18,07,42,16.30
2014,08,18,07,43,16.30
2014,08,18,07,44,16.40
2014,08,18,07,45,16.40
2014,08,18,07,46,16.40
2014,08,18,07,47,16.50
2014,08,18,07,48,16.50
2014,08,18,07,49,16.60
2014,08,18,07,50,16.70
2014,08,18,07,51,16.80
2014,08,18,07,52,16.90
2014,08,18,07,53,17.00
2014,08,18,07,54,17.10
2014,08,18,07,55,17.20
2014,08,18,07,56,17.30
2014,08,18,07,57,17.40
2014,08,18,07,58,17.50
2014,08,18,07,59,17.60
2014,08,18,08,00,17.70
2014,08,18,08,01,17.80
2014,08,18,08,02,17.80
2014,08,18,08,03,17.90
2014,08,18,08,04,18.00
2014,08,18,08,05,18.10
2014,08,18,08,06,18.10
2014,08,18,08,07,18.20
2014,08,18,08,08,18.20
2014,08,18,08,09,18.30
2014,08,18,08,10,18.40
2014,08,18,08,11,18.50
2014,08,18,08,12,18.70
2014,08,18,08,13,18.80
2014,08,18,08,14,18.90
2014,08,18,08,15,19.00
2014,08,18,08,16,19.10
2014,08,18,08,17,19.20
2014,08,18,08,18,19.30
2014,08,18,08,19,19.30
2014,08,18,08,20,19.40
2014,08,18,08,21,19.40
2014,08,18,08,22,19.50
2014,08,18,08,23,19.50
2014,08,18,08,24,19.60
2014,08,18,08,25,19.70
2014,08,18,08,26,19.80
2014,08,18,08,27,19.80
2014,08,18,08,28,19.80
2014,08,18,08,29,19.90
2014,08,18,08,30,19.90
2014,08,18,08,31,19.80
2014,08,18,08,32,19.80
2014,08,18,08,33,19.80
2014,08,18,08,34,19.80
2014,08,18,08,35,19.80
2014,08,18,08,36,19.80
2014,08,18,08,37,19.90
2014,08,18,08,38,19.90
2014,08,18,08,39,19.90
2014,08,18,08,40,19.90
2014,08,18,08,41,19.90
2014,08,18,08,42,19.90
2014,08,18,08,43,20.00
2014,08,18,08,44,20.00
2014,08,18,08,45,20.10
2014,08,18,08,46,20.10
2014,08,18,08,47,20.20
2014,08,18,08,48,20.20
2014,08,18,08,49,20.20
2014,08,18,08,50,20.30
2014,08,18,08,51,20.30
2014,08,18,08,52,20.40
2014,08,18,08,53,20.40
2014,08,18,08,54,20.40
2014,08,18,08,55,20.50
2014,08,18,08,56,20.60
2014,08,18,08,57,20.70
2014,08,18,08,58,20.80
2014,08,18,08,59,20.90
2014,08,18,09,00,20.90
2014,08,18,09,01,21.00
2014,08,18,09,02,21.10
2014,08,18,09,03,21.10
2014,08,18,09,04,21.20
2014,08,18,09,05,21.20
2014,08,18,09,06,21.20
2014,08,18,09,07,21.20
2014,08,18,09,08,21.20
2014,08,18,09,09,21.20
2014,08,18,09,10,21.20
2014,08,18,09,11,21.10
2014,08,18,09,12,21.10
2014,08,18,09,13,21.10
2014,08,18,09,14,21.10
2014,08,18,09,15,21.00
2014,08,18,09,16,20.90
2014,08,18,09,17,20.90
2014,08,18,09,18,20.80
2014,08,18,09,19,20.80
2014,08,18,09,20,20.80
2014,08,18,09,21,20.80
2014,08,18,09,22,20.80
2014,08,18,09,23,20.80
2014,08,18,09,24,20.70
2014,08,18,09,25,20.70
2014,08,18,09,26,20.70
2014,08,18,09,27,20.80
2014,08,18,09,28,20.80
2014,08,18,09,29,20.80
2014,08,18,09,30,20.90
2014,08,18,09,31,20.90
2014,08,18,09,32,20.90
2014,08,18,09,33,21.00
2014,08,18,09,34,21.00
2014,08,18,09,35,21.10
2014,08,18,09,36,21.10
2014,08,18,09,37,21.10
2014,08,18,09,38,21.10
2014,08,18,09,39,21.10
2014,08,18,09,40,21.10
2014,08,18,09,41,21.10
2014,08,18,09,42,21.10
2014,08,18,09,43,21.00
2014,08,18,09,44,21.10
2014,08,18,09,45,21.10
2014,08,18,09,46,21.10
2014,08,18,09,47,21.10
2014,08,18,09,48,21.10
2014,08,18,09,49,21.20
2014,08,18,09,50,21.20
2014,08,18,09,51,21.30
2014,08,18,09,52,21.30
2014,08,18,09,53,21.40
2014,08,18,09,54,21.40
2014,08,18,09,55,21.40
2014,08,18,09,56,21.40
2014,08,18,09,57,21.40
2014,08,18,09,58,21.40
2014,08,18,09,59,21.40
2014,08,18,10,00,21.40
2014,08,18,10,01,21.40
2014,08,18,10,02,21.40
2014,08,18,10,03,21.40
2014,08,18,10,04,21.40
2014,08,18,10,05,21.50
2014,08,18,10,06,21.50
2014,08,18,10,07,21.60
2014,08,18,10,08,21.60
2014,08,18,10,09,21.70
2014,08,18,10,10,21.80
2014,08,18,10,11,21.80
2014,08,18,10,12,21.90
2014,08,18,10,13,21.90
2014,08,18,10,14,22.00
2014,08,18,10,15,22.10
2014,08,18,10,16,22.10
2014,08,18,10,17,22.20
2014,08,18,10,18,22.20
2014,08,18,10,19,22.30
2014,08,18,10,20,22.30
2014,08,18,10,21,22.30
2014,08,18,10,22,22.40
2014,08,18,10,23,22.40
2014,08,18,10,24,22.50
2014,08,18,10,25,22.50
2014,08,18,10,26,22.60
2014,08,18,10,27,22.60
2014,08,18,10,28,22.70
2014,08,18,10,29,22.70
2014,08,18,10,30,22.60
2014,08,18,10,31,22.60
2014,08,18,10,32,22.60
2014,08,18,10,33,22.50
2014,08,18,10,34,22.50
2014,08,18,10,35,22.40
2014,08,18,10,36,22.40
2014,08,18,10,37,22.30
2014,08,18,10,38,22.30
2014,08,18,10,39,22.30
2014,08,18,10,40,22.30
2014,08,18,10,41,22.30
2014,08,18,10,42,22.40
2014,08,18,10,43,22.50
2014,08,18,10,44,22.50
2014,08,18,10,45,22.50
2014,08,18,10,46,22.50
2014,08,18,10,47,22.50
2014,08,18,10,48,22.40
2014,08,18,10,49,22.40
2014,08,18,10,50,22.30
2014,08,18,10,51,22.20
2014,08,18,10,52,22.20
2014,08,18,10,53,22.10
2014,08,18,10,54,22.10
2014,08,18,10,55,22.10
2014,08,18,10,56,22.10
2014,08,18,10,57,22.20
2014,08,18,10,58,22.20
2014,08,18,10,59,22.20
2014,08,18,11,00,22.30
2014,08,18,11,01,22.30
2014,08,18,11,02,22.30
2014,08,18,11,03,22.40
2014,08,18,11,04,22.40
2014,08,18,11,05,22.50
2014,08,18,11,06,22.50
2014,08,18,11,07,22.60
2014,08,18,11,08,22.60
2014,08,18,11,09,22.70
2014,08,18,11,10,22.70
2014,08,18,11,11,22.70
2014,08,18,11,12,22.70
2014,08,18,11,13,22.70
2014,08,18,11,14,22.70
2014,08,18,11,15,22.80
2014,08,18,11,16,22.80
2014,08,18,11,17,22.80
2014,08,18,11,18,22.90
2014,08,18,11,19,22.90
2014,08,18,11,20,23.00
2014,08,18,11,21,23.00
2014,08,18,11,22,23.10
2014,08,18,11,23,23.10
2014,08,18,11,24,23.20
2014,08,18,11,25,23.20
2014,08,18,11,26,23.20
2014,08,18,11,27,23.20
2014,08,18,11,28,23.10
2014,08,18,11,29,23.10
2014,08,18,11,30,23.10
2014,08,18,11,31,23.10
2014,08,18,11,32,23.10
2014,08,18,11,33,23.20
2014,08,18,11,34,23.20
2014,08,18,11,35,23.20
2014,08,18,11,36,23.30
2014,08,18,11,37,23.30
2014,08,18,11,38,23.30
2014,08,18,11,39,23.30
2014,08,18,11,40,23.30
2014,08,18,11,41,23.40
2014,08,18,11,42,23.40
2014,08,18,11,43,23.40
2014,08,18,11,44,23.50
2014,08,18,11,45,23.50
2014,08,18,11,46,23.50
2014,08,18,11,47,23.50
2014,08,18,11,48,23.50
2014,08,18,11,49,23.60
2014,08,18,11,50,23.60
2014,08,18,11,51,23.60
2014,08,18,11,52,23.60
2014,08,18,11,53,23.60
2014,08,18,11,54,23.60
2014,08,18,11,55,23.60
2014,08,18,11,56,23.60
2014,08,18,11,57,23.60
2014,08,18,11,58,23.60
2014,08,18,11,59,23.60
2014,08,18,12,00,23.60
2014,08,18,12,01,23.60
2014,08,18,12,02,23.60
2014,08,18,12,03,23.70
2014,08,18,12,04,23.80
2014,08,18,12,05,23.80
2014,08,18,12,06,23.90
2014,08,18,12,07,23.90
2014,08,18,12,08,24.00
2014,08,18,12,09,24.10
2014,08,18,12,10,24.10
2014,08,18,12,11,24.20
2014,08,18,12,12,24.20
2014,08,18,12,13,24.30
2014,08,18,12,14,24.30
2014,08,18,12,15,24.30
2014,08,18,12,16,24.30
2014,08,18,12,17,24.30
2014,08,18,12,18,24.30
2014,08,18,12,19,24.30
2014,08,18,12,20,24.30
2014,08,18,12,21,24.30
2014,08,18,12,22,24.30
2014,08,18,12,23,24.30
2014,08,18,12,24,24.30
2014,08,18,12,25,24.30
2014,08,18,12,26,24.30
2014,08,18,12,27,24.20
2014,08,18,12,28,24.20
2014,08,18,12,29,24.20
2014,08,18,12,30,24.10
2014,08,18,12,31,24.10
2014,08,18,12,32,24.10
2014,08,18,12,33,24.10
2014,08,18,12,34,24.10
2014,08,18,12,35,24.20
2014,08,18,12,36,24.20
2014,08,18,12,37,24.20
2014,08,18,12,38,24.30
2014,08,18,12,39,24.40
2014,08,18,12,40,24.40
2014,08,18,12,41,24.40
2014,08,18,12,42,24.40
2014,08,18,12,43,24.40
2014,08,18,12,44,24.30
2014,08,18,12,45,24.30
2014,08,18,12,46,24.40
2014,08,18,12,47,24.50
2014,08,18,12,48,24.60
2014,08,18,12,49,24.60
2014,08,18,12,50,24.70
2014,08,18,12,51,24.70
2014,08,18,12,52,24.70
2014,08,18,12,53,24.70
2014,08,18,12,54,24.70
2014,08,18,12,55,24.70
2014,08,18,12,56,24.70
2014,08,18,12,57,24.70
2014,08,18,12,58,24.70
2014,08,18,12,59,24.60
2014,08,18,13,00,24.50
2014,08,18,13,01,24.50
2014,08,18,13,02,24.40
2014,08,18,13,03,24.40
2014,08,18,13,04,24.30
2014,08,18,13,05,24.30
2014,08,18,13,06,24.30
2014,08,18,13,07,24.30
2014,08,18,13,08,24.30
2014,08,18,13,09,24.30
2014,08,18,13,10,24.40
2014,08,18,13,11,24.40
2014,08,18,13,12,24.50
2014,08,18,13,13,24.60
2014,08,18,13,14,24.60
2014,08,18,13,15,24.60
2014,08,18,13,16,24.60
2014,08,18,13,17,24.60
2014,08,18,13,18,24.60
2014,08,18,13,19,24.50
2014,08,18,13,20,24.50
2014,08,18,13,21,24.50
2014,08,18,13,22,24.40
2014,08,18,13,23,24.40
2014,08,18,13,24,24.40
2014,08,18,13,25,24.40
2014,08,18,13,26,24.40
2014,08,18,13,27,24.40
2014,08,18,13,28,24.40
2014,08,18,13,29,24.50
2014,08,18,13,30,24.60
2014,08,18,13,31,24.60
2014,08,18,13,32,24.70
2014,08,18,13,33,24.70
2014,08,18,13,34,24.70
2014,08,18,13,35,24.80
2014,08,18,13,36,24.80
2014,08,18,13,37,24.80
2014,08,18,13,38,24.80
2014,08,18,13,39,24.70
2014,08,18,13,40,24.70
2014,08,18,13,41,24.70
2014,08,18,13,42,24.80
2014,08,18,13,43,24.80
2014,08,18,13,44,24.80
2014,08,18,13,45,24.90
2014,08,18,13,46,25.00
2014,08,18,13,47,25.10
2014,08,18,13,48,25.20
2014,08,18,13,49,25.20
2014,08,18,13,50,25.30
2014,08,18,13,51,25.40
2014,08,18,13,52,25.40
2014,08,18,13,53,25.40
2014,08,18,13,54,25.40
2014,08,18,13,55,25.40
2014,08,18,13,56,25.40
2014,08,18,13,57,25.40
2014,08,18,13,58,25.40
2014,08,18,13,59,25.40
2014,08,18,14,00,25.30
2014,08,18,14,01,25.10
2014,08,18,14,02,24.90
2014,08,18,14,03,24.70
2014,08,18,14,04,24.50
2014,08,18,14,05,24.40
2014,08,18,14,06,24.30
2014,08,18,14,07,24.20
2014,08,18,14,08,24.20
2014,08,18,14,09,24.10
2014,08,18,14,10,24.10
2014,08,18,14,11,24.00
2014,08,18,14,12,24.00
2014,08,18,14,13,24.00
2014,08,18,14,14,23.90
2014,08,18,14,15,23.80
2014,08,18,14,16,23.70
2014,08,18,14,17,23.70
2014,08,18,14,18,23.60
2014,08,18,14,19,23.60
2014,08,18,14,20,23.50
2014,08,18,14,21,23.50
2014,08,18,14,22,23.50
2014,08,18,14,23,23.40
2014,08,18,14,24,23.40
2014,08,18,14,25,23.40
2014,08,18,14,26,23.40
2014,08,18,14,27,23.40
2014,08,18,14,28,23.50
2014,08,18,14,29,23.50
2014,08,18,14,30,23.60
2014,08,18,14,31,23.70
2014,08,18,14,32,23.80
2014,08,18,14,33,23.80
2014,08,18,14,34,23.80
2014,08,18,14,35,23.80
2014,08,18,14,36,23.90
2014,08,18,14,37,23.90
2014,08,18,14,38,23.90
2014,08,18,14,39,23.90
2014,08,18,14,40,23.90
2014,08,18,14,41,23.80
2014,08,18,14,42,23.80
2014,08,18,14,43,23.80
2014,08,18,14,44,23.80
2014,08,18,14,45,23.80
2014,08,18,14,46,23.80
2014,08,18,14,47,23.80
2014,08,18,14,48,23.90
2014,08,18,14,49,23.90
2014,08,18,14,50,23.90
2014,08,18,14,51,23.90
2014,08,18,14,52,23.90
2014,08,18,14,53,23.90
2014,08,18,14,54,23.90
2014,08,18,14,55,23.90
2014,08,18,14,56,23.90
2014,08,18,14,57,23.90
2014,08,18,14,58,23.80
2014,08,18,14,59,23.80
2014,08,18,15,00,23.80
2014,08,18,15,01,23.80
2014,08,18,15,02,23.70
2014,08,18,15,03,23.80
2014,08,18,15,04,23.80
2014,08,18,15,05,23.80
2014,08,18,15,06,23.80
2014,08,18,15,07,23.90
2014,08,18,15,08,23.90
2014,08,18,15,09,23.90
2014,08,18,15,10,23.90
2014,08,18,15,11,23.90
2014,08,18,15,12,24.00
2014,08,18,15,13,24.00
2014,08,18,15,14,24.00
2014,08,18,15,15,24.10
2014,08,18,15,16,24.10
2014,08,18,15,17,24.00
2014,08,18,15,18,24.00
2014,08,18,15,19,24.00
2014,08,18,15,20,24.00
2014,08,18,15,21,24.00
2014,08,18,15,22,24.00
2014,08,18,15,23,24.00
2014,08,18,15,24,24.00
2014,08,18,15,25,24.00
2014,08,18,15,26,24.00
2014,08,18,15,27,23.90
2014,08,18,15,28,23.90
2014,08,18,15,29,23.90
2014,08,18,15,30,23.80
2014,08,18,15,31,23.80
2014,08,18,15,32,23.80
2014,08,18,15,33,23.80
2014,08,18,15,34,23.70
2014,08,18,15,35,23.70
2014,08,18,15,36,23.70
2014,08,18,15,37,23.60
2014,08,18,15,38,23.60
2014,08,18,15,39,23.60
2014,08,18,15,40,23.60
2014,08,18,15,41,23.60
2014,08,18,15,42,23.60
2014,08,18,15,43,23.60
2014,08,18,15,44,23.60
2014,08,18,15,45,23.70
2014,08,18,15,46,23.70
2014,08,18,15,47,23.70
2014,08,18,15,48,23.80
2014,08,18,15,49,23.80
2014,08,18,15,50,23.80
2014,08,18,15,51,23.80
2014,08,18,15,52,23.80
2014,08,18,15,53,23.90
2014,08,18,15,54,23.90
2014,08,18,15,55,23.90
2014,08,18,15,56,23.90
2014,08,18,15,57,23.90
2014,08,18,15,58,23.90
2014,08,18,15,59,24.00
2014,08,18,16,00,24.00
2014,08,18,16,01,24.00
2014,08,18,16,02,24.00
2014,08,18,16,03,23.90
2014,08,18,16,04,23.90
2014,08,18,16,05,23.90
2014,08,18,16,06,23.90
2014,08,18,16,07,23.90
2014,08,18,16,08,23.90
2014,08,18,16,09,23.90
2014,08,18,16,10,23.90
2014,08,18,16,11,23.90
2014,08,18,16,12,23.90
2014,08,18,16,13,23.90
2014,08,18,16,14,23.90
2014,08,18,16,15,23.90
2014,08,18,16,16,23.90
2014,08,18,16,17,23.90
2014,08,18,16,18,23.90
2014,08,18,16,19,23.90
2014,08,18,16,20,23.90
2014,08,18,16,21,23.90
2014,08,18,16,22,23.90
2014,08,18,16,23,23.90
2014,08,18,16,24,24.00
2014,08,18,16,25,24.00
2014,08,18,16,26,24.00
2014,08,18,16,27,24.10
2014,08,18,16,28,24.10
2014,08,18,16,29,24.10
2014,08,18,16,30,24.20
2014,08,18,16,31,24.20
2014,08,18,16,32,24.20
2014,08,18,16,33,24.20
2014,08,18,16,34,24.20
2014,08,18,16,35,24.10
2014,08,18,16,36,24.10
2014,08,18,16,37,24.00
2014,08,18,16,38,23.90
2014,08,18,16,39,23.80
2014,08,18,16,40,23.70
2014,08,18,16,41,23.70
2014,08,18,16,42,23.60
2014,08,18,16,43,23.60
2014,08,18,16,44,23.70
2014,08,18,16,45,23.70
2014,08,18,16,46,23.60
2014,08,18,16,47,23.50
2014,08,18,16,48,23.50
2014,08,18,16,49,23.40
2014,08,18,16,50,23.40
2014,08,18,16,51,23.30
2014,08,18,16,52,23.30
2014,08,18,16,53,23.20
2014,08,18,16,54,23.20
2014,08,18,16,55,23.20
2014,08,18,16,56,23.20
2014,08,18,16,57,23.20
2014,08,18,16,58,23.10
2014,08,18,16,59,23.10
2014,08,18,17,00,23.10
2014,08,18,17,01,23.10
2014,08,18,17,02,23.20
2014,08,18,17,03,23.20
2014,08,18,17,04,23.20
2014,08,18,17,05,23.20
2014,08,18,17,06,23.20
2014,08,18,17,07,23.20
2014,08,18,17,08,23.20
2014,08,18,17,09,23.20
2014,08,18,17,10,23.20
2014,08,18,17,11,23.10
2014,08,18,17,12,23.10
2014,08,18,17,13,23.00
2014,08,18,17,14,23.00
2014,08,18,17,15,22.90
2014,08,18,17,16,22.90
2014,08,18,17,17,22.80
2014,08,18,17,18,22.80
2014,08,18,17,19,22.80